Home > Weather > Zarqa > Past weeks

Flag for Jordan Weather for the Past 2 Weeks in Zarqa, Jordan

Now
68 °F

Haze.


Feels Like: 68 °F
Forecast: 55 / 80 °F
Wind: No wind

Location: Amman Airport

Current Time: May 4, 2016 at 3:55:33 AM

Latest Report: May 4, 2016 at 3:00 AM


Visibility: 2 mi

Pressure: 29.86 "Hg (27.79 "Hg at 615m altitude)

Humidity: 49%

Dew Point: 48 °F

Location of ZarqaLocation

Historic Weather in Zarqa — Graph

°F

Zarqa Temperature Yesterday

Maximum temperature yesterday: 86 °F (at 2:00 PM)
Minimum temperature yesterday: 63 °F (at 5:00 AM)
Average temperature yesterday: 75 °F

High & Low Weather Summary for the Past Weeks

 TemperatureHumidityPressure
High91 °F (Apr 26, 4:00 PM)83% (May 2, 3:00 AM)30.12 "Hg (May 2, 3:00 AM)
Low52 °F (Apr 28, 6:00 AM)8% (Apr 20, 1:00 PM)29.77 "Hg (Apr 25, 6:00 AM)
Average73 °F32%29.96 "Hg
* Reported Apr 19 3:00 AM — May 4 3:00 AM, Zarqa, Weather by CustomWeather, © 2016

Note: Actual official high and low records may vary slightly from our data, if they occured in-between our weather recording intervals... More about our weather records

Advertising

Zarqa Weather History for the Previous 24 Hours

Scroll right to see more
 ConditionsComfort  
Time TempWeatherWind HumidityBarometerVisibility
3:00 AM
Wed, May 4
68 °FHaze.No wind49%29.86 "Hg2 mi
2:00 AM70 °FHaze.No wind46%29.86 "Hg2 mi
1:00 AM72 °FHaze.No wind47%29.89 "Hg2 mi
12:00 AM72 °FHaze.No wind44%29.89 "Hg2 mi
11:00 PM
Tue, May 3
73 °FHaze.No wind27%29.89 "Hg2 mi
10:00 PM75 °FHaze.No wind25%29.86 "Hg2 mi
9:00 PM75 °FHaze.No wind24%29.86 "Hg2 mi
8:00 PM79 °FHaze.2 mph30%29.86 "Hg2 mi
7:00 PM81 °FHaze.2 mph28%29.86 "Hg2 mi
6:00 PM82 °FHaze.3 mph25%29.86 "Hg2 mi
5:00 PM84 °FHaze.5 mph23%29.89 "Hg2 mi
4:00 PM86 °FHaze.7 mph19%29.89 "Hg2 mi
3:00 PM86 °FHaze.3 mph24%29.92 "Hg2 mi
2:00 PM86 °FHaze.No wind17%29.92 "Hg3 mi
1:00 PM84 °FHaze.3 mph19%29.95 "Hg3 mi
12:00 PM81 °FHaze.No wind23%29.98 "Hg2 mi
11:00 AM79 °FClear.No wind23%29.98 "Hg1 mi
10:00 AM77 °FClear.No wind30%29.98 "Hg1 mi
9:00 AM72 °FClear.3 mph38%29.98 "Hg1 mi
8:00 AM68 °FHaze.No wind43%29.98 "Hg1 mi
7:00 AM68 °FHaze.No wind40%29.95 "Hg2 mi
6:00 AM68 °FHaze.No wind35%29.95 "Hg3 mi
5:00 AM63 °FHaze.3 mph49%29.95 "Hg3 mi
4:00 AM64 °FHaze.3 mph46%29.95 "Hg3 mi
Weather by CustomWeather, © 2016

See weather overviewHow to use our weather pages